FENGYUN 1C DEB, 30314

Orbit data source: Space-Track

FENGYUN 1C DEB, 30314 is space debris in SSO originally from a launch on Mon, 10 May 1999 UTC launched from the Taiyaun Space Center, China (TSC). Fengyun 1C debris stems from the Chinese weather satellite Fengyun-1C, which was intentionally destroyed by a Chinese anti-satellite missile in 2007. This event dramatically increased the amount of space debris, with thousands of trackable fragments posing hazards to satellites and human spaceflight. The Fengyun 1C debris cloud has become a focal point in discussions about space sustainability and the need for international regulations to prevent the creation of new debris.

Loading next visibility...
Identifier
30314, 1999-025AAB
Orbit
SSO
Last TLE update
16 hours ago
Origin
Manufacturer
Unknown
Mission
Spacecraft
Bus & Motor
Unknown
Mass
Unknown
Launch date (UTC)
1999-05-10 (26 years ago)
Launch vehicle
Unknown
Launch site
Taiyaun Space Center, China (TSC)
Object type
Payload
Rocket body
Debris
Shape & HBR
Unknown
Radar Cross Section
Small (<0.1 m²)

Expand to show TLE details & history

TLE from 16 hours ago
0 FENGYUN 1C DEB
1 30314U 99025AAB 25191.33398125  .00000813  00000-0  52297-3 0  9998
2 30314  98.3829  34.8967 0144902  74.9978 286.7175 14.00509504939334
Epoch: 2025-07-10T08:00Z
TLE epoch observation values (Epoch: 2025-07-10T08:00:55.979Z)
Latitude
-0.00012°
Longitude
-13.83828°
Altitude
866.03 km
Speed
7.434 km/s
True Right ascension
02h 19m 35s
True Declination
0° 00' 00"
Sunlit
Object was in daylight at epoch
Visualization orbit readout
Latitude
1.71934°
Longitude
167.03573°
Altitude
920.679 km
Speed
7.378 km/s
Apparent Right ascension
16h 53m 02s
Apparent Declination
-46° 00' 43"
Sunlit
Object is in daylight
Visualization observer readout
Local Sidereal Time
12:32:59
Azimuth
139.617° SSE
Elevation
-13.688°
Doppler factor
1
Orbital elements
Apogee altitude
994.505 km
Perigee altitude
783.895 km
Semi-major axis
7,267.337 km
Eccentricity
0.01449
Inclination
98.3829°
RAAN
34.8967°
Arg. of periapsis
74.9978°
True anomaly
Unknown
Mean anomaly
286.7175°
Eccentric anomaly
Unknown
Mean motion
3.50332 °/min
Orbital period
102.76 mins
BSTAR
0.00052297
Loading maneuver chart data...
Loading SW <> Apogee altitude chart data...
Loading historical data...
Loading historical data...
Loading historical data...
Loading historical data...
Loading historical data...
Loading historical data...
Loading historical data...

FENGYUN 1C DEB Visibility forecast

Observer location: undefined°, undefined°

Span
Click to sort rows by Start time (UTC) header in descending order
Start Az.
Max El. time (UTC)
Max El. Az.
Max El.
End time (UTC)
End Az.
9 mins2025-07-11 01:44:47.363Z34.56° NE2025-07-11 01:48:47.363Z89.289° E30.013°2025-07-11 01:53:47.363Z161.034° S
7 mins2025-07-11 03:27:47.363Z337.154° NNW2025-07-11 03:30:47.363Z288.823° WNW25.825°2025-07-11 03:34:47.363Z237.525° WSW
8 mins2025-07-11 13:17:47.363Z150.161° SSE2025-07-11 13:21:47.363Z47.13° ENE41.397°2025-07-11 13:25:47.363Z354.658° N
4 mins2025-07-11 15:01:47.363Z249.144° W2025-07-11 15:03:47.363Z273.97° WNW13.598°2025-07-11 15:05:47.363Z297.526° NW
|